Regional Weather Roundup
Issued by NWS

Home | Current Version | Previous Version | Text Only | Print | Product List | Glossary On
Versions: 1 2 3 4 5 6 7 8 9 10 11 12 13 14 15 16 17 18 19 20 21 22 23 24 25 26 27 28 29 30 31 32 33 34 35 36 37 38 39 40 41 42 43 44 45 46 47 48 49 50
000
ASUS46 KPQR 021710
RWROR

OREGON REGIONAL WEATHER ROUNDUP
NATIONAL WEATHER SERVICE PORTLAND OR
1000 AM PDT TUE JUN 02 2015

NOTE: "FAIR" INDICATES FEW OR NO CLOUDS BELOW 12,000 FEET WITH
NO SIGNIFICANT WEATHER AND/OR OBSTRUCTIONS TO VISIBILITY.

ORZ001>013-021800-
NORTHWEST OREGON


CITY           SKY/WX    TMP DP  RH WIND       PRES   REMARKS
ASTORIA        CLOUDY    56  52  86 SW5       30.05S
NEWPORT        RAIN      54  54 100 S12       30.12R
PORTLAND       LGT RAIN  56  54  93 S6        30.08S
VANCOUVER WA   LGT RAIN  56  52  86 SE3       30.07S
SCAPPOOSE      CLOUDY    57  53  86 SE7       30.06S
HILLSBORO      CLOUDY    56  51  84 S7        30.06S
AURORA         CLOUDY    56  52  86 S12G17    30.09R
MCMINNVILLE    CLOUDY    58  52  80 S8        30.08S
SALEM          CLOUDY    58  52  80 S10       30.08R
CORVALLIS      CLOUDY    57  54  88 S10       30.10S
EUGENE         CLOUDY    58  52  80 S8        30.10S
$$

ORZ021-028-021800-
SOUTHWEST OREGON


CITY           SKY/WX    TMP DP  RH WIND       PRES   REMARKS
NORTH BEND     PTSUNNY   57  55  94 SW7       30.14R
BROOKINGS      MOSUNNY   57  57 100 W5        30.15R
ROSEBURG       CLOUDY    60  49  66 S3        30.12R
SEXTON SUMMIT  PTSUNNY   48  45  89 VRB3      30.11S
MEDFORD        PTSUNNY   61  48  62 NW7       30.09S
$$

ORZ014>016-041-021800-
COLUMBIA GORGE


CITY           SKY/WX    TMP DP  RH WIND       PRES   REMARKS
TROUTDALE      CLOUDY    57  52  83 VRB3      30.07S
THE DALLES     PTSUNNY   64  47  53 NW18      30.01S
$$

ORZ029>031-041-044-049-050-061>064-502-503-505>511-021800-
EASTERN OREGON


CITY           SKY/WX    TMP DP  RH WIND       PRES   REMARKS
REDMOND        PTSUNNY   56  44  64 VRB6      30.05R
BEND           PTSUNNY   55  41  58 SW6       30.05S
PRINEVILLE     PTSUNNY   55  45  67 N5        30.05S
KLAMATH FALLS  CLOUDY    55  45  68 VRB6      30.09S
LAKEVIEW       CLOUDY    52  45  76 SE6       30.10F
HERMISTON      MOSUNNY   67  43  41 SW16G28   29.97S
PENDLETON      MOSUNNY   65  44  46 W20G31    29.98F
JOHN DAY       CLOUDY    57  49  74 W8        30.04S
MEACHAM        PTSUNNY   55  47  74 CALM      30.03R
LA GRANDE      CLOUDY    61  45  55 CALM      29.99S
BAKER CITY     CLOUDY    59  49  69 CALM      30.01F
BURNS          CLOUDY    58  41  53 S13       30.06F
ROME             N/A     65  39  38 SW8       30.04F
ONTARIO        SUNNY     68  47  46 VRB3      30.00F
$$



USA.gov is the U.S. government's official web portal to all federal, state and local government web resources and services.